Starlink 32850

operational
NORAD ID: 62950 Int'l Des: 2025-029 Owner: SPXS Country: US Constellation: starlink
LEOCIRCULAR

Über Starlink 32850

Beschreibung wird geladen...

Live-Position

3D-Globus wird geladen...

Nächste Überflüge

Höhenverlauf

Altitude vs Time

uPlot chart will show altitude changes over time

Zweizeiliger Elementsatz

1 62950U 25029C 25260.18939207 .00022191 00000-0 75938-3 0 9994
2 62950 53.1578 318.3709 0001247 75.2913 284.8226 15.30189024 34760
Epoch: 17. Sept. 2025 • Age: 24 hours

Aktueller Status

Höhe 476.0 km
Geschwindigkeit 7.63 km/s
Subsatellitenpunkt 28.69°N, 82.76°W
Startdatum 11. Feb. 2025
Alter 0.5 years
Typ internet

Technische Details

Klassifizierung Payload
Masse 730.00 kg
Trockenmasse 700.00 kg
Gesamtmasse 730.00 kg
Länge 0.30 m
Durchmesser 4.10 m
Spannweite 29.00 m
Form Box + pan
Hersteller SPXS
Bus-Typ Starlink V2M
Phasenstatus In Orbit
Besitzer/Staat SPXS/US

Große Konstellationen

Loading constellations...